Regional Weather Roundup
Issued by NWS Kansas City/Pleasant Hill, MO

Home | Current Version | Previous Version | Text Only | Print | Product List | Glossary On
Versions: 1 2 3 4 5 6 7 8 9 10 11 12 13 14 15 16 17 18 19 20 21 22 23 24 25 26 27 28 29 30 31 32 33 34 35 36 37 38 39 40 41 42 43 44 45 46 47 48 49 50
000
ASUS43 KEAX 250410
RWREAX

WEATHER ROUNDUP FOR EASTERN KANSAS AND NORTHWEST MISSOURI
NATIONAL WEATHER SERVICE KANSAS CITY/PLEASANT HILL MO
1100 PM CDT SUN JUL 24 2016

KSZ040-057-103>105-MOZ028-029-037-043-250500-
...KANSAS CITY METROPOLITAN AREA...

CITY           SKY/WX    TMP DP  RH WIND       PRES   REMARKS
K.C. INTL      CLOUDY    81  69  67 E8        30.02R
K.C. DOWNTOWN  CLOUDY    83  70  64 E8        29.98R
LEES SUMMIT    CLOUDY    82  73  74 E10       30.00F
OLATHE - IXD   CLOUDY    82  72  71 NE10      30.01R
OLATHE - OJC   CLOUDY    81  72  74 NE10      30.00R
LAWRENCE       CLOUDY    78  69  73 E6        30.00R

$$

MOZ001>008-011>017-020>025-030>033-038>040-044>046-053-054-250500-
...NORTHERN AND CENTRAL MISSOURI...

CITY           SKY/WX    TMP DP  RH WIND       PRES   REMARKS
ST. JOSEPH     CLOUDY    75  67  76 VRB3      30.00R
MOSBY          CLOUDY    81  70  69 S5        30.01R
WHITEMAN AFB   TSTM      69  69  99 NE8       30.04R FOG
CLINTON        LGT RAIN  77  73  88 N14       30.00R
SEDALIA        TSTM      74  68  81 W22G38    30.03R
WARSAW         NOT AVBL
CHILLICOTHE      N/A     79  71  76 CALM      29.99R
KIRKSVILLE     CLOUDY    76  72  87 N5        29.97F

$$

MOZ041-047>049-056>058-063>065-088>090-097-250500-
...EASTERN AND SOUTHERN MISSOURI...

CITY           SKY/WX    TMP DP  RH WIND       PRES   REMARKS
ST. LOUIS INTL CLOUDY    89  78  70 S12       29.92R HX 103
SPIRIT OF STL  CLEAR     86  80  82 SW6       29.91R HX 101
COLUMBIA       CLOUDY    83  79  88 NW6       29.95S HX  94
JEFFERSON CITY CLOUDY    80  72  76 E6        29.92S THUNDER
ROLLA          CLEAR     81  74  79 SW8       29.96F
OSAGE BEACH    PTCLDY    83  80  91 CALM      29.96S HX  95
SPRINGFIELD    CLEAR     85  75  72 S6        29.99R HX  93
BRANSON        CLEAR     81  72  74 CALM      30.01S
JOPLIN         CLEAR     84  74  71 SE6       29.97R HX  91
WEST PLAINS    CLEAR     81  73  76 CALM      30.02F

$$

IAZ060-094-KSZ022-034>040-054-083-096-NEZ052-066-093-250500-
...KANSAS...SOUTHEAST NEBRASKA AND IOWA...

CITY           SKY/WX    TMP DP  RH WIND       PRES   REMARKS
TOPEKA         CLOUDY    79  69  71 NE3       30.00R
MANHATTAN      PTCLDY    76  67  73 NE5       30.02R
EMPORIA        PTCLDY    81  76  84 NE8       29.99R
CHANUTE        CLOUDY    85  75  72 SE5       29.96R HX  93
WICHITA        PTCLDY    88  70  55 SE8       29.96R HX  93
OMAHA          PTCLDY    72  67  84 N7        30.04R
LINCOLN        CLEAR     70  66  87 CALM      30.07R
FALLS CITY     CLEAR     71  68  90 NW5       30.02R
LAMONI         CLOUDY    74  68  81 N9        30.00S
DES MOINES     CLOUDY    77  66  68 N7        30.01R

$$




USA.gov is the U.S. government's official web portal to all federal, state and local government web resources and services.